Location: Canet
(43.3261°N, 5.3723°E)
Time: 08:01:09
(UTC+00:00)

Envisat - Pass Details

Date: 03 October 2021
Orbit: 764 x 766 km, 98.2° (Epoch: 25 October)

Event Time Altitude Azimuth Distance (km) Brightness Sun altitude
Rises 04:00:01 0° 23° (NNE) 3,240 6.8 -18.6°
Reaches altitude 10° 04:02:37 10° 35° (NE) 2,309 6.1 -18.1°
Maximum altitude 04:07:02 29° 95° (E) 1,369 5.0 -17.3°
Drops below altitude 10° 04:11:25 10° 155° (SSE) 2,293 5.6 -16.6°
Sets 04:13:59 0° 166° (SSE) 3,214 6.3 -16.1°
